Home   Weather   Malakal   Past weeks

Flag for South Sudan Past Weather in Malakal, South Sudan — Yesterday and Last 2 Weeks

Now
90 °F

Clear.


Feels Like: 86 °F
Forecast: 75 / 93 °F
Wind: 6 mph from North

Location: Khartoum Airport

Current Time: Apr 29, 2017 at 9:01:36 am

Latest Report: Apr 29, 2017 at 8:30 am


Visibility: 5 mi

Pressure: 29.86 "Hg

Humidity: 21%

Dew Point: 45 °F

Location of MalakalLocation

Past Weather in Malakal — Graph

°F

Malakal Temperature Yesterday

Maximum temperature yesterday: 102 °F (at 1:00 pm)
Minimum temperature yesterday: 86 °F (at 2:00 am)
Average temperature yesterday: 94 °F

High & Low Weather Summary for the Past Weeks

 TemperatureHumidityPressure
High111 °F (Apr 22, 3:00 pm)25% (Apr 29, 5:30 am)30.09 "Hg (Apr 29, 5:30 am)
Low77 °F (Apr 25, 7:30 am)4% (Apr 24, 1:00 am)29.65 "Hg (Apr 21, 3:30 pm)
Average94 °F10%29.79 "Hg
* Reported Apr 19 9:30 am — Apr 29 8:00 am, Malakal, Weather by CustomWeather, © 2017

Note: Actual official high and low records may vary slightly from our data, if they occured in-between our weather recording intervals... More about our weather records

Advertising

Malakal Weather History for the Previous 24 Hours

Scroll right to see more
 ConditionsComfort  
Time TempWeatherWind HumidityBarometerVisibility
8:00 am
Sat, Apr 29
86 °FPleasantly warm.6 mph22%29.86 "Hg5 mi
7:30 am84 °FPleasantly warm.6 mph23%29.86 "Hg5 mi
7:00 am82 °FPleasantly warm.7 mph25%29.86 "Hg5 mi
6:30 am82 °FPleasantly warm.6 mph25%29.83 "Hg5 mi
6:00 am82 °FPleasantly warm.3 mph25%29.83 "Hg5 mi
5:30 am82 °FHaze.3 mph25%29.83 "Hg5 mi
5:00 am84 °FClear.3 mph23%29.80 "Hg10 mi
4:00 am86 °FClear.6 mph19%29.80 "Hg10 mi
3:30 am88 °FClear.2 mph19%29.80 "Hg10 mi
3:00 am88 °FClear.2 mph19%29.80 "Hg10 mi
2:30 am88 °FClear.5 mph19%29.83 "Hg10 mi
2:00 am88 °FClear.No wind19%29.83 "Hg10 mi
1:30 am88 °FPleasantly warm.6 mph17%30.09 "Hg6 mi
1:00 am90 °FPassing clouds.2 mph17%29.83 "HgN/A
12:30 am93 °FPassing clouds.5 mph16%29.83 "HgN/A
12:00 am93 °FPassing clouds.3 mph16%29.83 "HgN/A
11:30 pm
Fri, Apr 28
95 °FPassing clouds.3 mph13%29.83 "Hg6 mi
11:00 pm95 °FClear.5 mph13%29.83 "Hg10 mi
10:30 pm95 °FClear.8 mph13%29.83 "Hg10 mi
10:00 pm95 °FClear.6 mph13%29.83 "Hg10 mi
9:30 pm97 °FClear.7 mph13%29.83 "Hg10 mi
9:00 pm97 °FClear.7 mph13%29.80 "Hg10 mi
8:30 pm97 °FClear.6 mph13%29.80 "Hg10 mi
8:00 pm97 °FExtremely hot.5 mph13%29.77 "HgN/A
7:00 pm100 °FExtremely hot.No wind11%29.77 "HgN/A
6:30 pm100 °FPartly sunny.6 mph11%29.77 "HgN/A
6:00 pm100 °FPartly sunny.7 mph11%29.77 "HgN/A
5:30 pm100 °FPartly sunny.10 mph11%29.77 "HgN/A
5:00 pm100 °FPartly sunny.10 mph11%29.77 "HgN/A
4:30 pm100 °FRain. Partly sunny.12 mph11%29.80 "HgN/A
4:00 pm100 °FPartly sunny.6 mph11%29.77 "HgN/A
3:00 pm102 °FPartly sunny.6 mph9%29.80 "Hg10 mi
2:30 pm102 °FSunny.8 mph9%29.80 "Hg10 mi
2:00 pm102 °FSunny.7 mph9%29.80 "Hg10 mi
1:30 pm102 °FSunny.5 mph9%29.83 "Hg10 mi
1:00 pm102 °FSunny.8 mph9%29.86 "Hg10 mi
12:30 pm100 °FSunny.9 mph8%29.86 "Hg10 mi
12:00 pm100 °FSunny.9 mph8%29.86 "Hg10 mi
11:30 am99 °FSunny.8 mph8%29.89 "Hg10 mi
10:30 am95 °FExtremely hot.9 mph8%29.89 "Hg4 mi
9:30 am95 °FExtremely hot.12 mph8%29.89 "Hg5 mi
9:00 am91 °FHot.7 mph10%29.86 "Hg5 mi
Weather by CustomWeather, © 2017

See weather overviewHow to use our weather pages